Powrót do katalogu

OSCAR 6

AktywnyKrótkofalarstwoSSO
NORAD 6236·PAYLOAD·🇺🇸 United States

Wystrzelony Oct 15, 1972 z Vandenberg Space Force Base

Loading…

Następne Przeloty (najbliższe 24 godziny)

TLE

ŚwieżeSource: Space-Track

Epoka: Sep 14, 2026, 01:55 UTC

1 06236U 72082B   26257.08020245 -.00000047  00000-0 -48576-5 0  9997
2 06236 101.9892 281.2956 0004202 345.4651  33.4617 12.53213177466101

Śledź OSCAR 6 w czasie rzeczywistym z AllMySat

Download on the App Store